When you browse on this site, cookies collect data to enhance your experience and personalize the content and advertising you see.
Visit our Privacy Policy to learn more. By continuing to use the site, you agree to this use of cookies and data.
  • In Hungary
  • List of Countries
  • For 7 days
  • Water Temperature
  • Satellite Maps
  • Weather Map
  • News
  • Weather Widgets
  • user-avatar
    Login

    Hourly Weather Bingley

    Today, 26 March, Tuesday

    Time Temperature Precipitation Wind Pressure Humidity
    00:00 +3°C° 0 mm 2 mps 758 mmHg 86%
    01:00 +3°C° 0 mm 2 mps 758 mmHg 87%
    02:00 +3°C° 0 mm 2 mps 758 mmHg 88%
    03:00 +3°C° 0 mm 2 mps 757 mmHg 89%
    04:00 +3°C° 0 mm 2 mps 757 mmHg 89%
    05:00 +3°C° 0 mm 2 mps 757 mmHg 89%
    06:00 +3°C° 0 mm 2 mps 757 mmHg 89%
    07:00 +3°C° 0 mm 3 mps 757 mmHg 84%
    08:00 +5°C° 0 mm 4 mps 757 mmHg 80%
    09:00 +7°C° 0 mm 5 mps 758 mmHg 76%
    10:00 +8°C° 0 mm 5 mps 757 mmHg 72%
    11:00 +9°C° 0 mm 5 mps 757 mmHg 68%
    12:00 +10°C° 0 mm 6 mps 757 mmHg 65%
    13:00 +10°C° 0 mm 6 mps 757 mmHg 64%
    14:00 +10°C° 0 mm 6 mps 757 mmHg 64%
    15:00 +10°C° 0 mm 6 mps 756 mmHg 64%
    16:00 +9°C° 0 mm 5 mps 756 mmHg 68%
    17:00 +8°C° 0 mm 5 mps 756 mmHg 73%
    18:00 +7°C° 0 mm 4 mps 756 mmHg 77%
    19:00 +6°C° 0 mm 4 mps 757 mmHg 80%
    20:00 +5°C° 0 mm 4 mps 757 mmHg 84%
    21:00 +4°C° 0 mm 4 mps 757 mmHg 87%
    22:00 +4°C° 0 mm 4 mps 757 mmHg 87%
    23:00 +4°C° 0 mm 4 mps 757 mmHg 87%

    Tomorrow, 27 March, Wednesday

    Time Temperature Precipitation Wind Pressure Humidity
    00:00 +4°C° 0 mm 4 mps 757 mmHg 87%
    01:00 +4°C° 0 mm 4 mps 757 mmHg 88%
    02:00 +4°C° 0 mm 4 mps 757 mmHg 88%
    03:00 +4°C° 0 mm 3 mps 757 mmHg 88%
    04:00 +4°C° 0 mm 3 mps 757 mmHg 89%
    05:00 +3°C° 0 mm 3 mps 757 mmHg 90%
    06:00 +3°C° 0 mm 3 mps 757 mmHg 91%
    07:00 +5°C° 0 mm 4 mps 758 mmHg 86%
    08:00 +6°C° 0 mm 4 mps 758 mmHg 80%
    09:00 +8°C° 0 mm 5 mps 758 mmHg 75%
    10:00 +8°C° 0 mm 5 mps 758 mmHg 73%
    11:00 +9°C° 0 mm 5 mps 758 mmHg 71%
    12:00 +10°C° 0 mm 5 mps 758 mmHg 68%
    13:00 +10°C° 0 mm 5 mps 758 mmHg 68%
    14:00 +10°C° 0 mm 5 mps 758 mmHg 67%
    15:00 +10°C° 0 mm 5 mps 758 mmHg 67%
    16:00 +9°C° 0 mm 5 mps 758 mmHg 71%
    17:00 +8°C° 0 mm 4 mps 758 mmHg 76%
    18:00 +7°C° 0 mm 4 mps 758 mmHg 80%
    19:00 +7°C° 0 mm 3 mps 759 mmHg 84%
    20:00 +5°C° 0 mm 3 mps 759 mmHg 87%
    21:00 +4°C° 0 mm 3 mps 759 mmHg 91%
    22:00 +4°C° 0 mm 3 mps 760 mmHg 92%
    23:00 +4°C° 0 mm 3 mps 760 mmHg 92%

    Day after tomorrow, 28 March, Thursday

    Time Temperature Precipitation Wind Pressure Humidity
    00:00 +4°C° 0 mm 2 mps 760 mmHg 93%
    01:00 +4°C° 0 mm 2 mps 760 mmHg 93%
    02:00 +4°C° 0 mm 2 mps 760 mmHg 93%
    03:00 +4°C° 0 mm 2 mps 760 mmHg 94%
    04:00 +4°C° 0 mm 2 mps 760 mmHg 94%
    05:00 +4°C° 0 mm 2 mps 760 mmHg 94%
    06:00 +4°C° 0 mm 2 mps 760 mmHg 95%
    07:00 +4°C° 0 mm 3 mps 760 mmHg 91%
    08:00 +7°C° 0 mm 3 mps 761 mmHg 87%
    09:00 +8°C° 0 mm 3 mps 761 mmHg 83%
    10:00 +9°C° 0 mm 3 mps 761 mmHg 77%
    11:00 +11°C° 0 mm 3 mps 761 mmHg 71%
    12:00 +12°C° 0 mm 3 mps 761 mmHg 66%
    13:00 +12°C° 0 mm 3 mps 760 mmHg 65%
    14:00 +13°C° 0 mm 3 mps 760 mmHg 63%
    15:00 +13°C° 0 mm 4 mps 759 mmHg 62%
    16:00 +12°C° 0 mm 3 mps 759 mmHg 65%
    17:00 +10°C° 0 mm 3 mps 759 mmHg 69%
    18:00 +9°C° 0 mm 3 mps 759 mmHg 72%
    19:00 +8°C° 0 mm 3 mps 759 mmHg 74%
    20:00 +7°C° 0 mm 3 mps 759 mmHg 76%
    21:00 +6°C° 0 mm 2 mps 759 mmHg 77%
    22:00 +6°C° 0 mm 2 mps 759 mmHg 78%
    23:00 +6°C° 0 mm 2 mps 758 mmHg 78%

    29 March, Friday

    Time Temperature Precipitation Wind Pressure Humidity
    00:00 +5°C° 0 mm 2 mps 758 mmHg 79%
    01:00 +5°C° 0 mm 2 mps 758 mmHg 82%
    02:00 +5°C° 0 mm 2 mps 758 mmHg 85%
    03:00 +5°C° 0 mm 2 mps 757 mmHg 87%
    04:00 +5°C° 0 mm 2 mps 757 mmHg 87%
    05:00 +4°C° 0 mm 2 mps 757 mmHg 86%
    06:00 +4°C° 0 mm 2 mps 756 mmHg 85%
    07:00 +5°C° 0 mm 3 mps 756 mmHg 78%
    08:00 +7°C° 0 mm 4 mps 756 mmHg 71%
    09:00 +8°C° 0 mm 4 mps 756 mmHg 64%
    10:00 +10°C° 0 mm 4 mps 756 mmHg 60%
    11:00 +12°C° 0 mm 5 mps 756 mmHg 56%
    12:00 +13°C° 0 mm 5 mps 756 mmHg 53%
    13:00 +13°C° 0 mm 5 mps 755 mmHg 52%
    14:00 +13°C° 0 mm 5 mps 755 mmHg 52%
    15:00 +13°C° 0 mm 5 mps 755 mmHg 52%
    16:00 +12°C° 0 mm 5 mps 754 mmHg 57%
    17:00 +11°C° 0 mm 4 mps 754 mmHg 63%
    18:00 +9°C° 0 mm 3 mps 754 mmHg 68%
    19:00 +8°C° 0 mm 3 mps 754 mmHg 72%
    20:00 +7°C° 0 mm 2 mps 755 mmHg 76%
    21:00 +6°C° 0 mm 2 mps 755 mmHg 81%
    22:00 +6°C° 0 mm 2 mps 755 mmHg 83%
    23:00 +5°C° 0 mm 2 mps 755 mmHg 85%

    30 March, Saturday

    Time Temperature Precipitation Wind Pressure Humidity
    00:00 +5°C° 0 mm 2 mps 754 mmHg 87%
    01:00 +5°C° 0 mm 2 mps 754 mmHg 88%
    02:00 +5°C° 0 mm 2 mps 754 mmHg 89%
    03:00 +5°C° 0 mm 2 mps 754 mmHg 91%
    04:00 +5°C° 0 mm 2 mps 754 mmHg 91%
    05:00 +5°C° 0 mm 2 mps 754 mmHg 91%
    06:00 +5°C° 0 mm 2 mps 754 mmHg 91%
    07:00 +6°C° 0 mm 2 mps 754 mmHg 87%
    08:00 +8°C° 0 mm 3 mps 755 mmHg 82%
    09:00 +9°C° 0 mm 3 mps 755 mmHg 78%
    10:00 +10°C° 0.1 mm 3 mps 755 mmHg 75%
    11:00 +10°C° 0.1 mm 3 mps 755 mmHg 73%
    12:00 +10°C° 0.1 mm 4 mps 755 mmHg 71%
    13:00 +10°C° 0 mm 4 mps 756 mmHg 67%
    14:00 +10°C° 0 mm 4 mps 756 mmHg 63%
    15:00 +10°C° 0 mm 4 mps 756 mmHg 59%
    16:00 +8°C° 0 mm 4 mps 756 mmHg 61%
    17:00 +8°C° 0 mm 3 mps 756 mmHg 63%
    18:00 +7°C° 0 mm 3 mps 757 mmHg 65%
    19:00 +6°C° 0 mm 4 mps 757 mmHg 64%
    20:00 +5°C° 0 mm 4 mps 758 mmHg 63%
    21:00 +4°C° 0 mm 4 mps 759 mmHg 62%
    22:00 +3°C° 0 mm 4 mps 759 mmHg 65%
    23:00 +2°C° 0 mm 3 mps 759 mmHg 68%

    31 March, Sunday

    Time Temperature Precipitation Wind Pressure Humidity
    00:00 +1°C° 0 mm 3 mps 760 mmHg 71%
    01:00 +1°C° 0 mm 3 mps 760 mmHg 73%
    02:00 0°C° 0 mm 3 mps 760 mmHg 74%
    03:00 0°C° 0 mm 3 mps 760 mmHg 76%
    04:00 -1°C° 0 mm 3 mps 760 mmHg 76%
    05:00 -1°C° 0 mm 3 mps 761 mmHg 77%
    06:00 -1°C° 0 mm 3 mps 761 mmHg 78%
    07:00 0°C° 0 mm 3 mps 761 mmHg 72%
    08:00 +1°C° 0 mm 4 mps 761 mmHg 66%
    09:00 +3°C° 0 mm 4 mps 762 mmHg 60%
    10:00 +4°C° 0 mm 4 mps 762 mmHg 57%
    11:00 +4°C° 0 mm 4 mps 762 mmHg 55%
    12:00 +5°C° 0 mm 4 mps 761 mmHg 52%
    13:00 +5°C° 0 mm 3 mps 761 mmHg 51%
    14:00 +7°C° 0 mm 3 mps 760 mmHg 51%
    15:00 +7°C° 0 mm 3 mps 760 mmHg 51%
    16:00 +5°C° 0 mm 3 mps 760 mmHg 54%
    17:00 +4°C° 0 mm 3 mps 759 mmHg 58%
    18:00 +3°C° 0 mm 3 mps 759 mmHg 61%
    19:00 +3°C° 0 mm 2 mps 759 mmHg 64%
    20:00 +2°C° 0 mm 2 mps 759 mmHg 66%
    21:00 +1°C° 0 mm 2 mps 760 mmHg 69%
    22:00 +1°C° 0 mm 2 mps 759 mmHg 70%
    23:00 +1°C° 0 mm 2 mps 759 mmHg 71%
    Show more